User: anonymous   Login
Location: Unspecified
(0.0000°N, 0.0000°E)
Time: 07:41:36
(UTC+00:00)
Language:

Gurwin Techsat 1B - Orbit

View from above orbital plane
View from above orbital plane
View from above satellite
View from above satellite

Ground track
Ground track

The orbit data is extracted from the following two-line orbital elements,

1 25397U 98043D   20336.57037876  .00000005  00000-0  21599-4 0  9992
2 25397  98.7474 276.9227 0000628 353.1858   6.9311 14.23695959163554
Epoch (UTC): 01 December 2020 13:41:20
Eccentricity: 0.0000628
inclination: 98.7474°
perigee height: 812 km
apogee height: 813 km
right ascension of ascending node: 276.9227°
argument of perigee: 353.1858°
revolutions per day: 14.23695959
mean anomaly at epoch: 6.9311°
orbit number at epoch: 16355

The dashed part of the orbit path shows where the satellite is in the earth's shadow,  

DLR